sat.trackr.live / text

‹ back to catalog

STARLINK-4458

NORAD 53668 · 2022-105W

PAYLOAD ACTIVE UNKNOWN

§ Identity

Operator
Country
US
Launch date
2022-08-31
Launch site
AFWTR
Launch vehicle
Mass (kg)
RCS (m²)

Purposes: comms

External: N2YO · Heavens-Above · Gunter

§ Orbital elements

Epoch: 2026-05-25T04:00:03.998880Z

Period
93.63 min
Inclination
97.6037°
Eccentricity
0.0001696
Mean motion
15.37973280 rev/d
Perigee alt
450.9 km
Apogee alt
453.3 km
Semi-major
6,830.2 km
B*
1.2704e-2
RAAN
28.3424°
Arg perigee
85.5798°
Mean anomaly
304.4613°
Rev number
585

§ Raw data

STARLINK-44581 53668U 22105W   26145.16671295  .00506579  00000+0  12704-1 0  99992 53668  97.6037  28.3424 0001696  85.5798 304.4613 15.37973280  5853

JSON: /api/v1/satellites/53668 · /tle

For live sub-satellite position, see the globe view (requires WebGL).

§ Visibility from observer

Set your observer location to see the next 7 days of passes ≥ 10°. The values pass through the URL so the page stays shareable.

No JS? Fill the form by hand. The geolocation button needs JavaScript.